When you browse on this site, cookies collect data to enhance your experience and personalize the content and advertising you see.
Visit our Privacy Policy to learn more. By continuing to use the site, you agree to this use of cookies and data.
  • Em Portugal
  • Lista de países
  • Para 7 dias
  • Temperatura da água
  • Mapas de satélite
  • Mapa do tempo
  • Widgets de tempo
  • user-avatar
    Iniciar Sessão

    Previsão horária em Zhmerynka

    Hoje, 25 Março, Segunda-feira

    Tempo Temperatura Precipitação Vento Pressão Humidade
    00:00 +5°C° 0 mm 1 m/s 734 mmHg 66%
    01:00 +5°C° 0 mm 1 m/s 733 mmHg 67%
    02:00 +3°C° 0 mm 0 m/s 733 mmHg 68%
    03:00 +4°C° 0 mm 1 m/s 732 mmHg 68%
    04:00 +4°C° 0 mm 1 m/s 732 mmHg 68%
    05:00 +4°C° 0 mm 1 m/s 731 mmHg 69%
    06:00 +4°C° 0 mm 1 m/s 731 mmHg 66%
    07:00 +5°C° 0 mm 1 m/s 731 mmHg 63%
    08:00 +6°C° 0 mm 1 m/s 730 mmHg 61%
    09:00 +6°C° 0.1 mm 1 m/s 730 mmHg 62%
    10:00 +6°C° 0.1 mm 0 m/s 730 mmHg 63%
    11:00 +6°C° 0.1 mm 0 m/s 729 mmHg 64%
    12:00 +7°C° 0.2 mm 1 m/s 729 mmHg 67%
    13:00 +7°C° 0.2 mm 1 m/s 729 mmHg 69%
    14:00 +7°C° 0.2 mm 1 m/s 729 mmHg 72%
    15:00 +7°C° 0 mm 1 m/s 728 mmHg 72%
    16:00 +7°C° 0 mm 1 m/s 728 mmHg 72%
    17:00 +7°C° 0 mm 1 m/s 728 mmHg 72%
    18:00 +6°C° 0 mm 1 m/s 728 mmHg 76%
    19:00 +5°C° 0 mm 1 m/s 728 mmHg 79%
    20:00 +5°C° 0 mm 1 m/s 728 mmHg 83%
    21:00 +4°C° 0 mm 1 m/s 728 mmHg 82%
    22:00 +4°C° 0 mm 1 m/s 728 mmHg 82%
    23:00 +4°C° 0 mm 1 m/s 728 mmHg 82%

    Amanhã, 26 Março, Terça-feira

    Tempo Temperatura Precipitação Vento Pressão Humidade
    00:00 +4°C° 0 mm 1 m/s 728 mmHg 82%
    01:00 +4°C° 0 mm 1 m/s 729 mmHg 81%
    02:00 +3°C° 0 mm 2 m/s 729 mmHg 81%
    03:00 +3°C° 0.2 mm 2 m/s 729 mmHg 84%
    04:00 +3°C° 0.2 mm 2 m/s 729 mmHg 87%
    05:00 +2°C° 0.2 mm 3 m/s 730 mmHg 90%
    06:00 +3°C° 0.3 mm 4 m/s 730 mmHg 85%
    07:00 +3°C° 0.3 mm 4 m/s 731 mmHg 79%
    08:00 +3°C° 0.3 mm 5 m/s 731 mmHg 73%
    09:00 +3°C° 0 mm 5 m/s 732 mmHg 65%
    10:00 +4°C° 0 mm 6 m/s 732 mmHg 57%
    11:00 +5°C° 0 mm 6 m/s 733 mmHg 50%
    12:00 +7°C° 0.1 mm 6 m/s 733 mmHg 48%
    13:00 +7°C° 0.1 mm 6 m/s 733 mmHg 46%
    14:00 +6°C° 0.1 mm 7 m/s 733 mmHg 45%
    15:00 +5°C° 0 mm 6 m/s 733 mmHg 47%
    16:00 +5°C° 0 mm 6 m/s 733 mmHg 48%
    17:00 +4°C° 0 mm 6 m/s 733 mmHg 50%
    18:00 +3°C° 0 mm 5 m/s 733 mmHg 56%
    19:00 +3°C° 0 mm 4 m/s 733 mmHg 62%
    20:00 +2°C° 0 mm 3 m/s 733 mmHg 68%
    21:00 +1°C° 0 mm 4 m/s 733 mmHg 68%
    22:00 0°C° 0 mm 5 m/s 733 mmHg 69%
    23:00 0°C° 0 mm 5 m/s 732 mmHg 69%

    Depois de amanhã, 27 Março, Quarta-feira

    Tempo Temperatura Precipitação Vento Pressão Humidade
    00:00 -1°C° 0.1 mm 6 m/s 732 mmHg 70%
    01:00 0°C° 0.1 mm 7 m/s 732 mmHg 71%
    02:00 0°C° 0.1 mm 8 m/s 732 mmHg 71%
    03:00 -1°C° 0.1 mm 8 m/s 733 mmHg 67%
    04:00 -3°C° 0.1 mm 9 m/s 733 mmHg 63%
    05:00 -4°C° 0.1 mm 9 m/s 734 mmHg 58%
    06:00 -5°C° 0 mm 9 m/s 735 mmHg 60%
    07:00 -5°C° 0 mm 9 m/s 735 mmHg 62%
    08:00 -5°C° 0 mm 8 m/s 736 mmHg 63%
    09:00 -4°C° 0 mm 8 m/s 737 mmHg 62%
    10:00 -2°C° 0 mm 7 m/s 738 mmHg 60%
    11:00 -1°C° 0 mm 7 m/s 739 mmHg 59%
    12:00 +1°C° 0 mm 6 m/s 739 mmHg 56%
    13:00 +2°C° 0 mm 6 m/s 739 mmHg 54%
    14:00 +2°C° 0 mm 6 m/s 739 mmHg 52%
    15:00 +2°C° 0 mm 6 m/s 740 mmHg 49%
    16:00 +2°C° 0 mm 6 m/s 740 mmHg 46%
    17:00 +2°C° 0 mm 5 m/s 740 mmHg 43%
    18:00 +1°C° 0 mm 4 m/s 741 mmHg 48%
    19:00 +1°C° 0 mm 3 m/s 741 mmHg 52%
    20:00 +1°C° 0 mm 2 m/s 742 mmHg 56%
    21:00 -1°C° 0 mm 2 m/s 742 mmHg 57%
    22:00 -1°C° 0 mm 2 m/s 743 mmHg 57%
    23:00 +1°C° 0 mm 1 m/s 743 mmHg 57%

    28 Março, Quinta-feira

    Tempo Temperatura Precipitação Vento Pressão Humidade
    00:00 0°C° 0 mm 1 m/s 743 mmHg 57%
    01:00 0°C° 0 mm 1 m/s 743 mmHg 56%
    02:00 0°C° 0 mm 1 m/s 744 mmHg 55%
    03:00 0°C° 0 mm 1 m/s 744 mmHg 55%
    04:00 0°C° 0 mm 1 m/s 744 mmHg 55%
    05:00 0°C° 0 mm 1 m/s 744 mmHg 54%
    06:00 +1°C° 0 mm 1 m/s 744 mmHg 51%
    07:00 +2°C° 0 mm 1 m/s 745 mmHg 48%
    08:00 +3°C° 0 mm 1 m/s 745 mmHg 45%
    09:00 +3°C° 0 mm 2 m/s 745 mmHg 41%
    10:00 +4°C° 0 mm 2 m/s 745 mmHg 38%
    11:00 +5°C° 0 mm 2 m/s 745 mmHg 35%
    12:00 +6°C° 0 mm 2 m/s 745 mmHg 34%
    13:00 +7°C° 0 mm 2 m/s 745 mmHg 34%
    14:00 +7°C° 0 mm 2 m/s 745 mmHg 33%
    15:00 +7°C° 0 mm 3 m/s 745 mmHg 35%
    16:00 +7°C° 0 mm 3 m/s 745 mmHg 36%
    17:00 +7°C° 0 mm 3 m/s 745 mmHg 38%
    18:00 +6°C° 0 mm 2 m/s 745 mmHg 43%
    19:00 +5°C° 0 mm 2 m/s 745 mmHg 48%
    20:00 +3°C° 0 mm 2 m/s 745 mmHg 53%
    21:00 +4°C° 0 mm 1 m/s 745 mmHg 55%
    22:00 +3°C° 0 mm 1 m/s 745 mmHg 57%
    23:00 +3°C° 0 mm 1 m/s 746 mmHg 59%

    29 Março, Sexta-feira

    Tempo Temperatura Precipitação Vento Pressão Humidade
    00:00 +2°C° 0 mm 1 m/s 746 mmHg 59%
    01:00 +1°C° 0 mm 0 m/s 746 mmHg 60%
    02:00 +1°C° 0 mm 0 m/s 746 mmHg 60%
    03:00 +1°C° 0 mm 0 m/s 746 mmHg 60%
    04:00 +2°C° 0 mm 1 m/s 746 mmHg 60%
    05:00 +2°C° 0 mm 1 m/s 746 mmHg 61%
    06:00 +3°C° 0 mm 1 m/s 746 mmHg 58%
    07:00 +4°C° 0 mm 1 m/s 746 mmHg 55%
    08:00 +5°C° 0 mm 1 m/s 746 mmHg 52%
    09:00 +5°C° 0 mm 2 m/s 746 mmHg 50%
    10:00 +6°C° 0 mm 2 m/s 746 mmHg 48%
    11:00 +8°C° 0 mm 3 m/s 746 mmHg 46%
    12:00 +9°C° 0 mm 3 m/s 746 mmHg 44%
    13:00 +9°C° 0 mm 3 m/s 745 mmHg 43%
    14:00 +10°C° 0 mm 3 m/s 745 mmHg 41%
    15:00 +10°C° 0 mm 3 m/s 744 mmHg 43%
    16:00 +10°C° 0 mm 3 m/s 744 mmHg 45%
    17:00 +10°C° 0 mm 3 m/s 744 mmHg 47%
    18:00 +9°C° 0 mm 3 m/s 743 mmHg 53%
    19:00 +8°C° 0 mm 3 m/s 743 mmHg 59%
    20:00 +7°C° 0 mm 2 m/s 743 mmHg 64%
    21:00 +6°C° 0 mm 2 m/s 743 mmHg 68%
    22:00 +6°C° 0 mm 2 m/s 743 mmHg 72%
    23:00 +6°C° 0 mm 1 m/s 743 mmHg 76%

    30 Março, Sábado

    Tempo Temperatura Precipitação Vento Pressão Humidade
    00:00 +5°C° 0 mm 1 m/s 743 mmHg 78%
    01:00 +5°C° 0 mm 1 m/s 743 mmHg 79%
    02:00 +5°C° 0 mm 1 m/s 742 mmHg 80%
    03:00 +3°C° 0 mm 2 m/s 742 mmHg 81%
    04:00 +3°C° 0 mm 2 m/s 742 mmHg 82%
    05:00 +3°C° 0 mm 2 m/s 742 mmHg 84%
    06:00 +4°C° 0 mm 2 m/s 742 mmHg 81%
    07:00 +5°C° 0 mm 2 m/s 742 mmHg 77%
    08:00 +6°C° 0 mm 2 m/s 742 mmHg 74%
    09:00 +7°C° 0 mm 2 m/s 742 mmHg 68%
    10:00 +9°C° 0 mm 2 m/s 742 mmHg 61%
    11:00 +10°C° 0 mm 2 m/s 741 mmHg 55%
    12:00 +12°C° 0 mm 2 m/s 741 mmHg 51%
    13:00 +13°C° 0 mm 2 m/s 740 mmHg 48%
    14:00 +14°C° 0 mm 2 m/s 740 mmHg 44%
    15:00 +14°C° 0 mm 2 m/s 739 mmHg 44%
    16:00 +14°C° 0 mm 2 m/s 739 mmHg 44%
    17:00 +14°C° 0 mm 2 m/s 738 mmHg 44%
    18:00 +12°C° 0 mm 1 m/s 738 mmHg 49%
    19:00 +11°C° 0 mm 1 m/s 738 mmHg 54%
    20:00 +9°C° 0 mm 0 m/s 738 mmHg 58%
    21:00 +9°C° 0 mm 1 m/s 738 mmHg 60%
    22:00 +9°C° 0 mm 1 m/s 737 mmHg 61%
    23:00 +8°C° 0 mm 1 m/s 737 mmHg 62%
    Mostrar mais